Date,TemperatureHighF,TemperatureAvgF,TemperatureLowF,DewpointHighF,DewpointAvgF,DewpointLowF,HumidityHigh,HumidityAvg,HumidityLow,PressureMaxIn,PressureMinIn,WindSpeedMaxMPH,WindSpeedAvgMPH,GustSpeedMaxMPH,PrecipitationSumIn
2014-2-8,22,16,11,18,13,4,97,88,69,0.00,40.00,7,4,8,0.03
2014-2-9,16,5,-4,14,1,-8,94,82,66,0.00,40.00,15,8,19,0.00
2014-2-10,8,-3,-10,-3,-9,-14,88,76,56,0.00,40.00,12,5,16,0.00
2014-2-11,17,3,-11,5,-3,-14,88,75,54,0.00,40.00,12,4,14,0.00
2014-2-12,30,18,12,20,12,4,93,75,56,0.00,40.00,9,4,11,0.04
2014-2-13,45,29,19,31,23,12,96,79,58,0.00,40.00,23,12,31,0.00
2014-2-14,19,14,7,14,9,3,92,79,70,0.00,40.00,20,11,25,0.18
2014-11-18,23,16,9,14,7,2,75,66,53,0.00,40.00,12,7,15,0.00
2014-11-19,29,25,21,20,15,11,75,65,57,0.00,40.00,22,11,32,0.01
2014-11-20,29,21,8,14,10,3,79,64,47,0.00,40.00,9,5,18,0.00
2014-11-21,36,24,8,31,15,4,88,70,47,0.00,40.00,11,6,15,0.00
2014-11-22,55,45,35,53,42,32,96,87,83,0.00,40.00,12,7,19,0.00
2014-11-23,54,49,36,51,47,33,94,91,83,0.00,40.00,21,8,35,0.28
2014-11-24,34,28,24,31,18,13,91,67,59,0.00,40.00,21,15,35,0.02
2014-11-25,35,25,18,19,13,8,74,60,31,0.00,40.00,12,5,24,0.00
2014-11-26,31,29,26,29,25,19,92,84,69,0.00,40.00,10,7,16,0.26
2014-11-27,27,13,6,23,3,-7,87,64,43,0.00,40.00,19,6,25,0.00
2014-11-28,44,27,13,29,20,3,90,74,55,0.00,40.00,12,6,15,0.00
2014-11-29,56,42,29,45,36,27,93,79,63,0.00,40.00,14,7,17,0.00
2014-11-30,37,22,13,35,14,2,94,71,54,0.00,40.00,20,12,30,0.00
2014-12-1,18,13,9,2,-1,-4,71,53,38,0.00,40.00,13,7,24,0.00
2014-12-2,34,21,9,20,13,1,82,70,55,0.00,40.00,12,6,15,0.00
2014-12-3,36,27,20,18,14,9,77,59,36,0.00,40.00,11,5,21,0.00
2014-12-4,34,29,21,27,19,14,82,67,52,0.00,40.00,9,5,12,0.00
2014-12-5,40,35,31,37,33,27,95,91,83,0.00,40.00,6,4,9,0.00
2014-12-6,42,33,26,32,26,20,94,74,44,0.00,40.00,9,5,12,0.00
2014-12-7,37,32,25,32,28,23,95,86,68,0.00,40.00,12,6,16,0.00
2014-12-8,44,38,30,37,30,21,93,75,51,0.00,40.00,19,9,34,0.00
2014-12-9,36,28,23,23,20,18,90,72,54,0.00,40.00,12,4,24,0.00
2014-12-10,33,27,26,27,22,23,92,72,69,0.00,40.00,6,3,9,0.00
2014-12-11,33,30,28,28,25,23,89,82,76,0.00,40.00,6,2,7,0.00
2014-12-12,49,36,30,35,31,28,94,83,59,0.00,40.00,7,4,9,0.00
2014-12-13,56,47,35,47,43,34,95,87,68,0.00,40.00,12,6,16,0.00
2014-12-14,58,51,45,51,48,44,94,86,76,0.00,40.00,9,6,12,0.00
2014-12-15,50,48,40,49,46,39,94,93,91,0.00,40.00,19,7,33,0.16
2014-12-16,38,26,18,37,20,10,94,76,66,0.00,40.00,26,17,39,0.00
2014-12-17,29,20,15,14,12,8,84,69,48,0.00,40.00,10,4,19,0.00
2014-12-18,27,24,16,22,19,13,86,81,75,0.00,40.00,4,1,6,0.05
2014-12-19,31,29,26,27,25,22,88,85,81,0.00,40.00,6,4,9,0.00
2014-12-20,35,28,30,34,26,27,95,91,87,0.00,40.00,6,4,8,0.00
2014-12-21,42,39,35,38,36,34,95,89,84,0.00,40.00,13,9,17,0.00
2014-12-22,41,39,38,38,37,35,95,92,88,0.00,40.00,11,7,14,0.13
2014-12-23,41,38,34,40,35,32,95,90,84,0.00,40.00,11,7,16,0.00
2014-12-24,36,34,31,33,31,27,93,87,76,0.00,40.00,15,8,26,0.01
2014-12-25,50,38,30,31,28,26,89,70,41,0.00,40.00,14,8,19,0.00
2014-12-26,42,37,33,33,32,28,92,80,67,0.00,40.00,8,4,12,0.00
2014-12-27,35,29,21,34,24,17,95,80,68,0.00,40.00,14,7,21,0.00
2014-12-28,37,25,15,22,17,12,89,75,45,0.00,40.00,6,4,9,0.00
2014-12-29,27,23,9,24,17,1,89,78,62,0.00,40.00,12,7,21,0.00
2014-12-30,14,8,3,0,-4,-8,70,58,42,0.00,40.00,12,6,21,0.00
2014-12-31,22,11,0,4,-2,-9,73,57,40,0.00,40.00,18,8,23,0.00
2015-1-1,37,23,14,16,11,4,73,59,40,0.00,40.00,14,9,17,0.00
2015-1-2,35,27,16,24,18,12,88,71,53,0.00,40.00,6,3,7,0.00